[[{"header":{"parameterUnit":"m.s-1","parameterCategory":1,"la1":30.2991,"la2":30.254,"lo1":-89.0895,"lo2":-89.0444,"dy":0.0017,"dx":0.0017,"nx":28,"ny":28,"refTime":"2026-02-01T03:00:00:Z","depth":0,"parameterNumber":2,"parameterNumberName":"U-component_of_WINDS"},"data":[0,0,0,0,0,0,0,0,0,0,0,0,0,0,0,0,0,0,0,0,0,0,0,0,0,0,0,0,0,0,0,0,0,0,0,0,0,0,0,0,0,0,0,0,0,0,0,0,0,0,0,0,0,0,0,0,0,0,3.3018,3.3019,0,3.3064,3.3065,3.3065,3.3045,3.3044,3.3043,3.3042,3.3086,3.3088,3.309,0,0,0,0,0,0,0,0,0,0,0,0,0,3.2912,3.2914,3.3018,3.3019,3.302,3.3064,3.3065,3.3065,3.3045,3.3044,3.3043,3.3041,3.3085,3.3088,3.3091,0,0,0,0,0,0,0,0,0,0,0,0,0,3.2958,3.2915,3.3018,3.3015,3.3015,3.3064,3.3065,3.3066,3.3046,3.3044,3.3042,3.3041,3.3085,3.3088,3.3091,3.3145,0,0,3.3101,3.3103,0,0,0,0,0,0,0,0,3.2955,3.2962,3.3015,3.3015,3.3016,3.3047,3.3043,3.3092,3.3046,3.3034,3.3042,3.304,3.3074,3.3078,3.3091,3.3147,3.3149,3.3101,3.3103,3.3105,3.3106,0,0,0,0,0,0,0,3.2952,3.296,3.3036,3.3016,3.3016,3.3011,3.3015,3.3053,3.3063,3.3035,3.3034,3.3039,3.3074,3.3087,3.3091,3.315,3.3101,3.3104,3.3106,3.3108,3.3254,3.3256,0,0,0,0,0,0,3.2949,3.2957,3.3035,3.3038,3.2981,3.3014,3.3019,3.3039,3.3062,3.3065,3.3041,3.3038,3.3083,3.3088,3.3093,3.3158,3.3105,3.3108,3.311,3.3252,3.3254,3.3256,0,0,0,0,0,0,3.2947,3.2956,3.3033,3.2997,3.3007,3.3018,3.304,3.3041,3.3054,3.3067,3.3068,3.3053,3.3081,3.3088,3.3133,3.3159,3.3109,3.3113,3.325,3.3253,3.3255,3.3288,0,0,0,0,0,0,3.2944,3.2956,3.2977,3.2998,3.3009,3.3072,3.3041,3.3043,3.306,3.3057,3.3078,3.308,3.3081,3.3128,3.3136,3.3163,3.3115,3.3247,3.3251,3.3254,3.3285,3.3292,3.3298,0,0,0,0,0,3.294,3.2983,3.2978,3.2987,3.3035,3.3074,3.308,3.308,3.3062,3.3083,3.3092,3.308,3.3156,3.3133,3.3142,3.317,3.3246,3.325,3.3254,3.3282,3.3291,3.3298,0,0,0,0,0,0,3.2963,3.2986,3.298,3.3031,3.3051,3.3071,3.3097,3.3089,3.3114,3.311,3.3109,3.3114,3.316,3.317,3.3144,3.3224,3.3198,3.3204,3.3216,3.3224,3.3231,3.3227,3.3118,0,0,0,0,0,3.2974,3.3005,3.3023,3.3066,3.3077,3.3085,3.3102,3.3101,3.3121,3.3129,3.3141,3.316,3.3189,3.3207,3.3234,3.3287,3.3291,3.3311,3.3318,3.3323,3.3328,3.3357,3.3366,3.327,3.327,3.327,0,0,3.2997,3.3014,3.3032,3.3071,3.3086,3.3118,3.3092,3.3126,3.3149,3.3134,3.3177,3.3187,3.3208,3.3257,3.3279,3.3266,3.3356,3.3328,3.3332,3.3334,3.3362,3.3371,3.3379,3.3273,3.3273,3.3272,0,0,3.3055,3.307,3.3109,3.3125,3.3149,3.3155,3.3164,3.3186,3.3192,3.3235,3.3225,3.3252,3.3301,3.3317,3.3331,3.3398,3.3387,3.3406,3.344,3.3469,3.3476,3.3483,3.3506,3.3515,3.3412,3.3412,3.3412,0,3.308,3.3127,3.3129,3.3164,3.3181,3.3171,3.321,3.3225,3.3256,3.3268,3.3254,3.3316,3.333,3.3383,3.3399,3.3412,3.3422,3.3403,3.3475,3.3482,3.3488,3.351,3.3519,3.3414,3.3414,3.3413,3.3413,0,3.3156,3.319,3.3217,3.3249,3.327,3.3307,3.3314,3.3335,3.3333,3.334,3.3385,3.3401,3.3432,3.3444,3.3442,3.3498,3.3489,3.3475,3.3448,3.3499,3.352,3.3529,3.3417,3.3416,3.3416,3.3415,0,0,3.3227,3.3262,3.3272,3.3286,3.3313,3.3339,3.3375,3.3406,3.3424,3.3447,3.3477,3.352,3.3507,3.3524,3.3524,3.3549,3.3601,3.3532,3.3533,3.3544,3.3663,3.3672,3.3682,3.3595,3.3596,3.3598,3.3661,0,3.3286,3.3351,3.3355,3.3413,3.3444,3.3436,3.3468,3.3488,3.3496,3.3523,3.3532,3.3562,3.3544,3.3554,3.3579,3.3589,3.3624,3.3585,3.3622,3.3623,3.3616,3.3693,3.3703,3.3761,3.3669,3.367,3.3671,0,3.3363,3.339,3.3452,3.3476,3.3489,3.3517,3.3546,3.3573,3.3595,3.36,3.362,3.3616,3.3654,3.3627,3.3679,3.3652,3.3668,3.3675,3.3677,3.368,3.3649,3.3696,3.378,3.3788,3.3684,3.3683,3.3682,0,3.3408,3.3459,3.3503,3.3516,3.3545,3.3566,3.3578,3.36,3.3619,3.3644,3.3656,3.3686,3.3702,3.3724,3.3729,3.371,3.3781,3.3754,3.3785,3.3785,3.3798,3.3797,3.3885,3.3811,3.3811,3.3811,3.381,0,3.3473,3.3511,3.3524,3.355,3.3593,3.3598,3.364,3.3651,3.3671,3.3699,3.3694,3.3721,3.3727,3.3755,3.3759,3.3801,3.3808,3.3812,3.3813,3.3812,3.3811,3.3821,3.3817,3.3813,3.3812,3.3812,3.3812,0,3.3529,3.3539,3.3587,3.3611,3.3618,3.3649,3.3669,3.3695,3.3704,3.3741,3.3749,3.3763,3.3796,3.3804,3.3842,3.3845,3.3895,3.3892,3.3887,3.3887,3.3916,3.3913,3.4012,3.4025,3.3944,3.3945,3.3945,0,3.3569,3.3598,3.3627,3.3646,3.3661,3.3692,3.3712,3.3718,3.3738,3.3768,3.379,3.3823,3.3849,3.3902,3.3915,3.3945,3.3942,3.3975,3.3946,3.3945,3.3942,3.394,3.3942,3.398,3.3981,3.3981,3.3982,0,3.3638,3.3643,3.3672,3.3703,3.3728,3.3752,3.3776,3.3792,3.3801,3.3825,3.3859,3.388,3.3921,3.3954,3.3984,3.3997,3.3991,3.3991,3.4,3.3999,3.3994,3.3997,3.3901,3.3988,3.3988,3.3987,3.3987,3.3987,3.3687,3.3713,3.3738,3.3771,3.379,3.3812,3.3838,3.3851,3.388,3.3914,3.3917,3.3954,3.3977,3.4018,3.4033,3.4062,3.4052,3.4064,3.4067,3.407,3.4072,3.3991,3.4068,3.4068,3.4068,3.4067,3.4067,0,3.3756,3.3772,3.3803,3.3837,3.3863,3.3857,3.3883,3.3905,3.3938,3.3961,3.3988,3.4028,3.406,3.4077,3.4109,3.4129,3.4127,3.4137,3.4135,3.4138,3.408,3.4069,3.4138,3.4138,3.4138,3.4138,3.4138,3.4138,3.3795,3.3839,3.3846,3.39,3.3915,3.3953,3.3968,3.3989,3.4008,3.4053,3.408,3.4091,3.4112,3.4145,3.4175,3.4179,3.419,3.4201,3.4204,3.4149,3.4142,3.4135,3.4125,3.4204,3.4204,3.4259,3.426,3.426]},{"header":{"parameterUnit":"m.s-1","parameterCategory":1,"la1":30.2991,"la2":30.254,"lo1":-89.0895,"lo2":-89.0444,"dy":0.0017,"dx":0.0017,"nx":28,"ny":28,"refTime":"2026-02-01T03:00:00:Z","depth":0,"parameterNumber":3,"parameterNumberName":"V-component_of_WINDS"},"data":[0,0,0,0,0,0,0,0,0,0,0,0,0,0,0,0,0,0,0,0,0,0,0,0,0,0,0,0,0,0,0,0,0,0,0,0,0,0,0,0,0,0,0,0,0,0,0,0,0,0,0,0,0,0,0,0,0,0,-8.8179,-8.8181,0,-8.8408,-8.8411,-8.8413,-8.8342,-8.8337,-8.8333,-8.8328,-8.8559,-8.857,-8.858,0,0,0,0,0,0,0,0,0,0,0,0,0,-8.7676,-8.7685,-8.8178,-8.8181,-8.8184,-8.8408,-8.8411,-8.8414,-8.8343,-8.8337,-8.8331,-8.8326,-8.8556,-8.8568,-8.8581,0,0,0,0,0,0,0,0,0,0,0,0,0,-8.7899,-8.7689,-8.8178,-8.8176,-8.8178,-8.8407,-8.8411,-8.8415,-8.8344,-8.8337,-8.833,-8.8323,-8.8551,-8.8567,-8.8583,-8.8827,0,0,-8.8632,-8.8639,0,0,0,0,0,0,0,0,-8.7886,-8.7917,-8.8173,-8.8176,-8.8179,-8.8339,-8.8318,-8.8553,-8.8346,-8.8281,-8.8328,-8.8319,-8.8492,-8.8512,-8.8571,-8.8837,-8.8847,-8.8633,-8.8643,-8.865,-8.8654,0,0,0,0,0,0,0,-8.7871,-8.7907,-8.8269,-8.8177,-8.8181,-8.8162,-8.8186,-8.8362,-8.8424,-8.8286,-8.8282,-8.831,-8.8492,-8.8556,-8.8576,-8.8851,-8.8633,-8.8647,-8.8657,-8.8663,-8.9329,-8.9337,0,0,0,0,0,0,-8.7854,-8.7894,-8.8262,-8.8276,-8.8012,-8.8177,-8.8204,-8.8295,-8.8422,-8.8434,-8.8316,-8.8306,-8.8532,-8.8557,-8.8584,-8.8878,-8.8649,-8.8665,-8.8674,-8.9321,-8.9331,-8.934,0,0,0,0,0,0,-8.7843,-8.7887,-8.8252,-8.8084,-8.8129,-8.8194,-8.8297,-8.8303,-8.8367,-8.8444,-8.8455,-8.837,-8.8527,-8.8561,-8.8767,-8.8885,-8.8672,-8.8686,-8.9312,-8.9324,-8.9335,-8.9468,0,0,0,0,0,0,-8.7829,-8.7884,-8.7978,-8.8087,-8.8139,-8.8434,-8.8304,-8.8313,-8.8395,-8.8384,-8.8498,-8.851,-8.8524,-8.8744,-8.8783,-8.8903,-8.8699,-8.9301,-8.9317,-8.9332,-8.9454,-8.9484,-8.9509,0,0,0,0,0,-8.7811,-8.8005,-8.7983,-8.8028,-8.8258,-8.8441,-8.847,-8.8484,-8.8405,-8.85,-8.855,-8.8506,-8.8866,-8.8765,-8.8809,-8.8936,-8.9294,-8.9313,-8.933,-8.9441,-8.9478,-8.9509,0,0,0,0,0,0,-8.7907,-8.8019,-8.7996,-8.8231,-8.8327,-8.8428,-8.8548,-8.8522,-8.8641,-8.8625,-8.8636,-8.8662,-8.8874,-8.8925,-8.8811,-8.9179,-8.9068,-8.9096,-8.9137,-8.9173,-8.92,-8.9183,-8.8712,0,0,0,0,0,-8.7955,-8.8096,-8.8186,-8.8384,-8.8434,-8.8483,-8.8563,-8.8566,-8.8665,-8.8705,-8.8769,-8.8866,-8.9001,-8.909,-8.9218,-8.9461,-8.9484,-8.9569,-8.9597,-8.9619,-8.9643,-8.9776,-8.9815,-8.94,-8.94,-8.9399,0,0,-8.8057,-8.8135,-8.8223,-8.8406,-8.848,-8.8625,-8.8518,-8.8674,-8.8781,-8.8728,-8.8927,-8.8978,-8.9087,-8.9313,-8.9415,-8.9362,-8.9763,-8.9643,-8.966,-8.9672,-8.9799,-8.9838,-8.9873,-8.9412,-8.941,-8.9408,0,0,-8.8315,-8.8389,-8.8563,-8.8641,-8.8756,-8.8787,-8.8829,-8.8935,-8.8968,-8.9168,-8.9131,-8.9258,-8.949,-8.9569,-8.964,-8.993,-8.9895,-8.9971,-9.0116,-9.0245,-9.0278,-9.0307,-9.0411,-9.0448,-8.9995,-8.9995,-8.9995,0,-8.8426,-8.8644,-8.8655,-8.8817,-8.8898,-8.8858,-8.9034,-8.9108,-8.9258,-8.9315,-8.9254,-8.9545,-8.9615,-8.9859,-8.993,-8.9989,-9.0037,-8.9958,-9.0273,-9.0302,-9.0329,-9.0428,-9.0467,-9.0004,-9.0003,-9.0002,-9.0001,0,-8.8775,-8.8926,-8.9052,-8.9201,-8.9296,-8.9464,-8.9501,-8.9596,-8.959,-8.9628,-8.9832,-8.9916,-9.0061,-9.0118,-9.0114,-9.0363,-9.0326,-9.0269,-9.0158,-9.0377,-9.0471,-9.0509,-9.0016,-9.0013,-9.001,-9.0008,0,0,-8.9099,-8.9253,-8.93,-8.9367,-8.9491,-8.9608,-8.9773,-8.9917,-8.9998,-9.0103,-9.0242,-9.044,-9.0389,-9.0469,-9.0473,-9.0586,-9.0812,-9.0515,-9.0518,-9.0567,-9.1091,-9.1134,-9.1178,-9.0789,-9.0796,-9.0802,-9.1082,0,-8.9369,-8.9662,-8.9678,-8.9943,-9.0083,-9.0048,-9.0192,-9.0283,-9.0323,-9.0447,-9.049,-9.0631,-9.0551,-9.06,-9.0711,-9.0761,-9.0917,-9.0741,-9.0918,-9.0924,-9.0892,-9.1227,-9.1272,-9.1533,-9.1119,-9.1125,-9.113,0,-8.9722,-8.9841,-9.0121,-9.0226,-9.0285,-9.0415,-9.0548,-9.0667,-9.077,-9.0791,-9.0882,-9.087,-9.1039,-9.0922,-9.1155,-9.1035,-9.1108,-9.1144,-9.1154,-9.1171,-9.104,-9.1253,-9.1616,-9.1656,-9.1187,-9.1183,-9.1178,0,-8.9932,-9.0161,-9.0358,-9.0416,-9.0544,-9.0636,-9.0694,-9.079,-9.0875,-9.0991,-9.1046,-9.118,-9.1253,-9.1356,-9.138,-9.1293,-9.1613,-9.1498,-9.1635,-9.1635,-9.1704,-9.1699,-9.2085,-9.1751,-9.1751,-9.175,-9.1749,0,-9.0231,-9.0404,-9.0454,-9.0576,-9.0768,-9.0784,-9.0974,-9.1025,-9.1111,-9.1241,-9.1218,-9.134,-9.1364,-9.1492,-9.1511,-9.1701,-9.1734,-9.1756,-9.1759,-9.1758,-9.1756,-9.1806,-9.1789,-9.176,-9.1758,-9.1756,-9.1754,0,-9.0498,-9.0538,-9.0751,-9.0855,-9.0886,-9.1023,-9.1111,-9.1228,-9.1265,-9.143,-9.147,-9.1528,-9.1677,-9.1711,-9.1888,-9.1901,-9.2126,-9.2112,-9.2092,-9.2091,-9.2226,-9.2213,-9.2658,-9.2717,-9.2344,-9.2348,-9.2351,0,-9.0686,-9.0819,-9.0938,-9.1024,-9.1086,-9.1225,-9.1313,-9.1334,-9.1426,-9.1554,-9.1655,-9.1801,-9.1919,-9.2158,-9.2216,-9.2351,-9.2339,-9.2486,-9.2359,-9.2355,-9.2342,-9.2334,-9.2348,-9.251,-9.2514,-9.2517,-9.252,0,-9.1017,-9.1031,-9.1159,-9.1295,-9.14,-9.1507,-9.161,-9.1681,-9.1716,-9.1821,-9.1974,-9.2066,-9.2247,-9.2392,-9.2528,-9.2585,-9.256,-9.2559,-9.2598,-9.2599,-9.2583,-9.2594,-9.2159,-9.2549,-9.2546,-9.2544,-9.2542,-9.2541,-9.1251,-9.1367,-9.147,-9.1613,-9.1693,-9.1789,-9.1904,-9.1956,-9.2085,-9.2235,-9.2239,-9.2406,-9.2505,-9.2685,-9.2751,-9.2881,-9.2836,-9.2892,-9.2906,-9.292,-9.2932,-9.2562,-9.2906,-9.2905,-9.2904,-9.2903,-9.2903,0,-9.1581,-9.1645,-9.1777,-9.1922,-9.2035,-9.2001,-9.2113,-9.2209,-9.2357,-9.2453,-9.257,-9.2746,-9.2887,-9.2957,-9.3096,-9.3187,-9.3179,-9.3223,-9.3217,-9.3231,-9.2964,-9.2917,-9.3228,-9.3228,-9.3228,-9.3228,-9.3228,-9.3228,-9.1766,-9.1961,-9.1987,-9.2222,-9.2285,-9.2449,-9.2516,-9.2605,-9.2681,-9.2879,-9.2997,-9.3042,-9.3128,-9.3274,-9.3402,-9.3418,-9.3471,-9.3522,-9.3532,-9.3282,-9.3249,-9.3218,-9.3173,-9.3533,-9.3533,-9.3788,-9.379,-9.3792]}]]